Missoula International Airport
KMSO : rendu visible

Aérodrome :











RETROUVEZ-NOUS SUR...

 
LOGIN :

S'inscrire | Disclaimer

   EN    FR    IT 

 









Légende :    VFR   VFR Marginal   IFR   IFR Intensif   IFR Très Intensif
Visi : 
Plafond : 
>= 8 km
>= 3000ft
5 à 8 km
1000 à 3000 ft
1500m à 5 km
500 à 1000 ft
800 à 1500m
200 à 500 ft
< 800m
< 200 ft
Symboles :   Orages  Brouillard  Fortes neiges  Fortes précipitations  Vent > 20 kt






- Altitude de l'aérodrome : 3206 ft
- Code IATA : MSO


KMSO - Missoula International

DERNIER METAR :
  • 042053Z AUTO 27014G18KT 10SM FEW080 FEW100 22/02 A2993 RMK AO2 SLP123 T02220017 58006 $

METARs EXPIRÉS :
  • 041953Z 28011KT 10SM FEW080 BKN110 19/01 A2994 RMK AO2 SLP131 T01940011 $
  • 041853Z 28016KT 10SM BKN110 21/02 A2995 RMK AO2 SLP129 T02060017 $

TAF KMSO
Valide du 04 à 18h jusqu'au 05 à 18h UTC


041720Z 0418/0518 28008KT P6SM BKN080
FM042000 29016G25KT P6SM SCT080
FM050300 33008KT P6SM FEW080
FM050500 VRB03KT P6SM SKC
FIR KZLC / Amérique du Nord



MET'MAP, la Météo Aéronautique d'un coup d'oeil ! - Copyright ORBIFLY Décembre 2007 - Disclaimer

ORBIFLY MET'MAP TEAM :

Programmation & Développement : Alexandra Zaïnal
Sur une idée originale de : Baudouin d'Aumeries
Assistance à la programmation : Marc-Olivier Méhu
Soutien technique & logistique : Manuel Goepfert

Contact : metmap@orbifly.com




SOURCES & CREDITS :

   NOAA       Earth
Advisory